Regional Weather Roundup
Issued by NWS

Home | Current Version | Previous Version | Text Only | Print | Product List | Glossary Off
Versions: 1 2 3 4 5 6 7 8 9 10 11 12 13 14 15 16 17 18 19 20 21 22 23 24 25 26 27

000
ASUS45 KCYS 181710
RWRWY

WYOMING REGIONAL WEATHER ROUNDUP
NATIONAL WEATHER SERVICE CHEYENNE WY
1000 AM MST WED JAN 18 2017

NOTE:  "FAIR" INDICATES FEW OR NO CLOUDS BELOW 12,000 FEET
WITH NO SIGNIFICANT WEATHER AND/OR OBSTRUCTIONS TO VISIBILITY.

WYZ001-181800-
YELLOWSTONE NATIONAL PARK

CITY           SKY/WX    TMP DP  RH WIND       PRES   REMARKS
LK YELLOWSTONE   N/A     -2  -2 100 CALM      30.03F
W YELLOWSTONE  NOT AVBL

$$
WYZ002>013-054>058-071-098>099-181800-
NORTHERN WYOMING

CITY           SKY/WX    TMP DP  RH WIND       PRES   REMARKS
JACKSON        SUNNY     -6  -8  92 CALM      30.11F
CODY           FAIR      41  17  38 SE9       29.83F
GREYBULL       FAIR       1  -4  79 CALM      29.91S
WORLAND        FAIR      13   7  77 S3        29.88S
SHERIDAN       FAIR      22  14  71 VRB6      29.72F WCI  14
BUFFALO        FAIR      41  20  43 W9        29.75F
GILLETTE       FAIR      42  21  43 VRB5      29.77F
HULETT         FAIR      36  19  51 W14       29.78S WCI  27
NEWCASTLE      FAIR      32  19  59 NW3       29.85F

$$
WYZ014>020-022>026-101>103-181800-
CENTRAL WYOMING

CITY           SKY/WX    TMP DP  RH WIND       PRES   REMARKS
BIG PINEY      FAIR      -7 -11  83 CALM      30.07S
PINEDALE       FAIR      -6  -9  84 CALM      30.07F
DUBOIS         NOT AVBL
LANDER         FAIR      14   7  73 NW3       29.97R
RIVERTON       FAIR      10   5  80 W7        29.98S WCI  -1
CASPER         FAIR      35  18  49 SW31G46   29.90S WCI  22
DOUGLAS        FAIR      32  18  56 NW9       29.86F WCI  24

$$
WYZ021-027>030-104>119-181800-
SOUTHERN WYOMING

CITY           SKY/WX    TMP DP  RH WIND       PRES   REMARKS
EVANSTON       FAIR      17   7  64 S6        30.06S WCI   9
ROCK SPRINGS   FAIR      -1  -3  91 CALM      30.07S
RAWLINS        FAIR      13   9  84 CALM      30.05F
LARAMIE        FAIR       9   6  88 SE3       29.99S
CHEYENNE       FAIR      46  13  26 W9        29.89F
TORRINGTON     FAIR      36  17  46 S3        29.86F

$$




USA.gov is the U.S. government's official web portal to all federal, state and local government web resources and services.